Centralia, IL

11:25 AM CST on February 27, 2017 (GMT -0600)
Centralia Municipal

Weather History for KENL - October, 2011

Change the Weather History Date:

Tuesday, October 11, 2011

  Actual Average (KSLO) Record (KSLO)
Temperature  
Mean Temperature 68 °F -  
Max Temperature 82 °F 70 °F 93 °F (1963)
Min Temperature 53 °F 44 °F 29 °F (1990)
Cooling Degree Days 2    
Growing Degree Days 18 (Base 50)    
Moisture  
Dew Point 54 °F    
Average Humidity 67    
Maximum Humidity 94    
Minimum Humidity 34    
Precipitation  
Precipitation 0.00 in - - ()
Sea Level Pressure  
Sea Level Pressure 29.98 in    
Wind  
Wind Speed 0 mph (ESE)    
Max Wind Speed 7 mph    
Max Gust Speed -    
Visibility 10 miles    
Events      
Averages and records for this station are not official NWS values.
T = Trace of Precipitation, MM = Missing Value Source: NWS Daily Summary

Daily Weather History Graph

Daily Weather History Graph

Search for Another Location

Airport or City:

Trip Planner

Search our weather history database for the weather conditions in past years. The results will help you decide how hot, cold, wet, or windy it might be!

Date:

Astronomy

Oct. 11, 2011 Rise Set
Actual Time 7:01 AM CDT 6:24 PM CDT
Civil Twilight 6:34 AM CDT 6:50 PM CDT
Nautical Twilight 6:03 AM CDT 7:21 PM CDT
Astronomical Twilight 5:33 AM CDT 7:52 PM CDT
Moon 5:56 PM CDT (10/11) 6:38 AM CDT (10/11)
Length of Visible Light 12h 16m
Length of Day
11h 23m
Full, 100% of the Moon is Illuminated
Oct 11
Full
Oct 11
Full
Oct 19
Last Quarter
Oct 26
New
Nov 2
First Quarter

Hourly Weather History & Observations

Time (CDT) Temp. Heat Index Dew Point Humidity Pressure Visibility Wind Dir Wind Speed Gust Speed Precip Events Conditions
12:15 AM 57.2 °F - 55.4 °F 94% 30.03 in 10.0 mi Calm Calm - N/A   Clear
12:35 AM 57.2 °F - 53.6 °F 88% 30.03 in 10.0 mi Calm Calm - N/A   Clear
12:55 AM 57.2 °F - 53.6 °F 88% 30.02 in 10.0 mi Calm Calm - N/A   Scattered Clouds
1:15 AM 57.2 °F - 53.6 °F 88% 30.02 in 10.0 mi Calm Calm - N/A   Scattered Clouds
1:35 AM 55.4 °F - 53.6 °F 94% 30.02 in 7.0 mi Calm Calm - N/A   Clear
1:55 AM 55.4 °F - 53.6 °F 94% 30.02 in 10.0 mi Calm Calm - N/A   Clear
2:15 AM 55.4 °F - 51.8 °F 88% 30.01 in 7.0 mi Calm Calm - N/A   Clear
2:35 AM 55.4 °F - 51.8 °F 88% 30.01 in 7.0 mi Calm Calm - N/A   Clear
2:55 AM 53.6 °F - 51.8 °F 94% 30.00 in 7.0 mi Calm Calm - N/A   Clear
3:15 AM 55.4 °F - 51.8 °F 88% 30.00 in 10.0 mi Calm Calm - N/A   Clear
3:35 AM 55.4 °F - 51.8 °F 88% 30.00 in 7.0 mi Calm Calm - N/A   Clear
3:55 AM 53.6 °F - 51.8 °F 94% 30.01 in 10.0 mi Calm Calm - N/A   Clear
4:15 AM 53.6 °F - 51.8 °F 94% 30.01 in 7.0 mi Calm Calm - N/A   Clear
4:35 AM 55.4 °F - 51.8 °F 88% 30.01 in 10.0 mi Calm Calm - N/A   Scattered Clouds
4:55 AM 55.4 °F - 53.6 °F 94% 30.01 in 10.0 mi Calm Calm - N/A   Mostly Cloudy
5:15 AM 57.2 °F - 53.6 °F 88% 30.01 in 10.0 mi Calm Calm - N/A   Overcast
5:35 AM 57.2 °F - 53.6 °F 88% 30.01 in 10.0 mi Calm Calm - N/A   Overcast
5:55 AM 57.2 °F - 53.6 °F 88% 30.01 in 10.0 mi Calm Calm - N/A   Overcast
6:15 AM 57.2 °F - 55.4 °F 94% 30.02 in 10.0 mi Calm Calm - N/A   Overcast
6:35 AM 59.0 °F - 55.4 °F 88% 30.02 in 10.0 mi Calm Calm - N/A   Overcast
6:55 AM 59.0 °F - 55.4 °F 88% 30.02 in 10.0 mi Calm Calm - N/A   Mostly Cloudy
7:15 AM 59.0 °F - 55.4 °F 88% 30.01 in 10.0 mi Calm Calm - N/A   Scattered Clouds
7:35 AM 59.0 °F - 55.4 °F 88% 30.01 in 10.0 mi Calm Calm - N/A   Scattered Clouds
7:55 AM 60.8 °F - 55.4 °F 82% 30.02 in 10.0 mi Calm Calm - N/A   Scattered Clouds
8:15 AM 60.8 °F - 57.2 °F 88% 30.02 in 10.0 mi Calm Calm - N/A   Scattered Clouds
8:35 AM 62.6 °F - 57.2 °F 82% 30.02 in 10.0 mi Calm Calm - N/A   Scattered Clouds
8:55 AM 64.4 °F - 57.2 °F 77% 30.02 in 10.0 mi Calm Calm - N/A   Clear
9:15 AM 64.4 °F - 57.2 °F 77% 30.02 in 10.0 mi Calm Calm - N/A   Scattered Clouds
9:35 AM 66.2 °F - 57.2 °F 73% 30.01 in 10.0 mi Calm Calm - N/A   Clear
9:55 AM 68.0 °F - 57.2 °F 68% 30.01 in 10.0 mi Calm Calm - N/A   Scattered Clouds
10:15 AM 68.0 °F - 57.2 °F 68% 30.01 in 10.0 mi Calm Calm - N/A   Scattered Clouds
10:35 AM 69.8 °F - 57.2 °F 64% 30.00 in 10.0 mi Calm Calm - N/A   Scattered Clouds
10:55 AM 71.6 °F - 57.2 °F 60% 30.00 in 10.0 mi Calm Calm - N/A   Scattered Clouds
11:15 AM 75.2 °F - 57.2 °F 53% 29.99 in 10.0 mi Calm Calm - N/A   Clear
11:35 AM 77.0 °F - 55.4 °F 47% 29.99 in 10.0 mi Calm Calm - N/A   Clear
11:55 AM 77.0 °F - 53.6 °F 44% 29.98 in 10.0 mi Calm Calm - N/A   Scattered Clouds
12:15 PM 78.8 °F - 53.6 °F 42% 29.98 in 10.0 mi Calm Calm - N/A   Clear
12:35 PM 78.8 °F - 51.8 °F 39% 29.97 in 10.0 mi Calm Calm - N/A   Clear
12:55 PM 78.8 °F - 53.6 °F 42% 29.96 in 10.0 mi SSE 3.5 mph - N/A   Clear
1:15 PM 80.6 °F 80.3 °F 53.6 °F 39% 29.95 in 10.0 mi Calm Calm - N/A   Clear
1:35 PM 80.6 °F 80.3 °F 53.6 °F 39% 29.94 in 10.0 mi East 3.5 mph - N/A   Clear
1:55 PM 80.6 °F - 51.8 °F 37% 29.93 in 10.0 mi SE 6.9 mph - N/A   Clear
2:15 PM 80.6 °F - 51.8 °F 37% 29.93 in 5.0 mi Calm Calm - N/A   Haze
2:35 PM 80.6 °F - 51.8 °F 37% 29.93 in 10.0 mi East 4.6 mph - N/A   Clear
2:55 PM 78.8 °F - 51.8 °F 39% 29.92 in 10.0 mi SSE 3.5 mph - N/A   Clear
3:15 PM 80.6 °F - 51.8 °F 37% 29.92 in 10.0 mi Calm Calm - N/A   Clear
3:35 PM 80.6 °F - 51.8 °F 37% 29.91 in 10.0 mi Calm Calm - N/A   Clear
3:55 PM 80.6 °F - 51.8 °F 37% 29.90 in 10.0 mi East 3.5 mph - N/A   Scattered Clouds
4:15 PM 80.6 °F - 51.8 °F 37% 29.90 in 10.0 mi East 4.6 mph - N/A   Scattered Clouds
4:35 PM 82.4 °F - 51.8 °F 35% 29.90 in 10.0 mi East 5.8 mph - N/A   Scattered Clouds
4:55 PM 80.6 °F - 50.0 °F 34% 29.90 in 10.0 mi SSE 3.5 mph - N/A   Clear
5:15 PM 78.8 °F - 51.8 °F 39% 29.89 in 10.0 mi ESE 4.6 mph - N/A   Clear
5:35 PM 78.8 °F - 51.8 °F 39% 29.89 in 10.0 mi SE 3.5 mph - N/A   Clear
5:55 PM 77.0 °F - 53.6 °F 44% 29.89 in 10.0 mi Calm Calm - N/A   Clear
6:15 PM 73.4 °F - 53.6 °F 50% 29.89 in 10.0 mi Calm Calm - N/A   Clear
6:35 PM 69.8 °F - 55.4 °F 60% 29.89 in 10.0 mi Calm Calm - N/A   Clear
6:55 PM 66.2 °F - 55.4 °F 68% 29.89 in 10.0 mi Calm Calm - N/A   Clear
7:15 PM 62.6 °F - 55.4 °F 77% 29.89 in 10.0 mi Calm Calm - N/A   Clear
7:35 PM 62.6 °F - 55.4 °F 77% 29.89 in 10.0 mi Calm Calm - N/A   Clear
7:55 PM 60.8 °F - 55.4 °F 82% 29.89 in 10.0 mi Calm Calm - N/A   Clear
8:15 PM 60.8 °F - 55.4 °F 82% 29.89 in 10.0 mi Calm Calm - N/A   Clear
8:35 PM 60.8 °F - 55.4 °F 82% 29.90 in 10.0 mi Calm Calm - N/A   Clear
8:55 PM 59.0 °F - 55.4 °F 88% 29.90 in 10.0 mi Calm Calm - N/A   Clear
9:15 PM 60.8 °F - 55.4 °F 82% 29.90 in 10.0 mi Calm Calm - N/A   Clear
9:35 PM 60.8 °F - 55.4 °F 82% 29.90 in 10.0 mi Calm Calm - N/A   Clear
9:55 PM 59.0 °F - 55.4 °F 88% 29.90 in 10.0 mi Calm Calm - N/A   Scattered Clouds
10:15 PM 60.8 °F - 55.4 °F 82% 29.90 in 10.0 mi Calm Calm - N/A   Mostly Cloudy
10:35 PM 60.8 °F - 55.4 °F 82% 29.90 in 10.0 mi Calm Calm - N/A   Overcast
10:55 PM 60.8 °F - 55.4 °F 82% 29.90 in 10.0 mi East 3.5 mph - N/A   Scattered Clouds
11:15 PM 60.8 °F - 55.4 °F 82% 29.89 in 10.0 mi East 3.5 mph - N/A   Clear
11:35 PM 57.2 °F - 53.6 °F 88% 29.89 in 10.0 mi Calm Calm - N/A   Clear
11:55 PM 59.0 °F - 55.4 °F 88% 29.87 in 10.0 mi Calm Calm - N/A   Clear